[ hide orbit diagram ]
For accurate long-term ephemerides, please instead use our Horizons system.This orbit viewer was implemented using two-body methods, and hence should not be used for determining accurate long-term trajectories (over several years or decades) or planetary encounter circumstances.
Orbital Elements at Epoch 2459000.5 (2020-May-31.0) TDB
Reference: JPL 15 (heliocentric ecliptic J2000)
Element | Value | Uncertainty (1-sigma) | Units |
e | .15163753568706 | 5.1785e-08 | |
a | 2.265381997233208 | 9.8588e-09 | au |
q | 1.921865053782934 | 1.1874e-07 | au |
i | 4.794827231581177 | 5.4665e-06 | deg |
node | 354.8834234416454 | 4.3538e-05 | deg |
peri | 4.173091664955125 | 4.6234e-05 | deg |
M | 64.78012555443263 | 1.297e-05 | deg |
tp | 2458776.395860372256 (2019-Oct-19.89586037) | 4.5178e-05 | TDB |
period | 1245.404969124322 3.41 | 8.1299e-06 2.226e-08 | d yr |
n | .289062601262243 | 1.887e-09 | deg/d |
Q | 2.608898940683482 | 1.1354e-08 | au |
|
| | Orbit Determination Parameters
Additional Information
|
[ show covariance matrix ]
Physical Parameter Table
Parameter |
Symbol |
Value |
Units |
Sigma |
Reference |
Notes |
absolute magnitude |
H |
17.0 |
|
n/a |
MPO450048 |
|
|
226134 (2002 RG79) Discovered 2002-Sep-05 by LINEAR at Socorro |
Reference: 20091202/Numbers.arc | Last Updated: 2009-12-04 |
|
[ show close-approach data ]
|